Location: Banff
(51.1667°N, 115.5667°W)
Time: 10:57:18
(UTC+00:00)

Courier 1B Rocket - Pass Details

Date: 26 November 2020
Orbit: 920 x 1202 km, 28.2° (Epoch: 17 January)

Event Time Altitude Azimuth Distance (km) Brightness Sun altitude
Rises 15:49:46 0° 225° (SW) 4,046 8.2 3.2°
Reaches altitude 10° 15:55:47 10° 189° (S) 3,021 8.1 3.9°
Maximum altitude 15:57:07 11° 179° (S) 2,964 8.3 4.0°
Drops below altitude 10° 15:58:27 10° 168° (SSE) 2,986 8.6 4.2°
Sets 16:04:12 0° 132° (SE) 3,859 11.3 4.8°
